| time (UTC) | temp F | wind direction | speed MPH | gust MPH | rain 1hr in | rain 24hr in | rain mn in | humidity % | barometer mb |
| 20260505153326 | 78 | 281 | 0.0 | 1.0 | 0.00 | 0.00 | 0.00 | 87 | 1013.7 |
| 20260505152823 | 78 | 265 | 0.0 | 1.0 | 0.00 | 0.00 | 0.00 | 86 | 1013.8 |
| 20260505152320 | 78 | 255 | 0.0 | 3.0 | 0.00 | 0.00 | 0.00 | 86 | 1013.8 |
| 20260505151814 | 78 | 271 | 0.0 | 1.0 | 0.00 | 0.00 | 0.00 | 86 | 1013.7 |
| 20260505151311 | 78 | 281 | 1.0 | 2.0 | 0.00 | 0.00 | 0.00 | 86 | 1013.6 |
| 20260505150808 | 78 | 282 | 0.0 | 1.0 | 0.00 | 0.00 | 0.00 | 87 | 1013.5 |
| 20260505150305 | 78 | 247 | 0.0 | 2.0 | 0.00 | 0.00 | 0.00 | 87 | 1013.7 |
| 20260505140229 | 77 | 232 | 1.0 | 3.0 | 0.00 | 0.00 | 0.00 | 88 | 1013.0 |
| 20260505130153 | 75 | 239 | 0.0 | 1.0 | 0.00 | 0.00 | 0.00 | 92 | 1013.0 |
| 20260505124643 | 74 | 229 | 1.0 | 1.0 | 0.00 | 0.00 | 0.00 | 93 | 1012.5 |
| 20260505124139 | 73 | 300 | 0.0 | 1.0 | 0.00 | 0.00 | 0.00 | 93 | 1012.8 |
| 20260505123630 | 73 | 252 | 0.0 | 1.0 | 0.00 | 0.00 | 0.00 | 94 | 1013.1 |
| 20260505123127 | 73 | 285 | 0.0 | 0.0 | 0.00 | 0.00 | 0.00 | 94 | 1012.9 |
| 20260505122623 | 73 | 288 | 0.0 | 0.0 | 0.00 | 0.00 | 0.00 | 94 | 1013.0 |
| 20260505122120 | 72 | 110 | 3.0 | 5.0 | 0.00 | 0.00 | 0.00 | 95 | 1013.2 |
| 20260505121611 | 72 | 246 | 0.0 | 0.0 | 0.00 | 0.00 | 0.00 | 95 | 1012.8 |
| 20260505121108 | 72 | 236 | 0.0 | 0.0 | 0.00 | 0.00 | 0.00 | 95 | 1012.8 |
| 20260505120604 | 72 | 252 | 0.0 | 0.0 | 0.00 | 0.00 | 0.00 | 95 | 1012.5 |
| 20260505120100 | 72 | 254 | 0.0 | 0.0 | 0.00 | 0.00 | 0.00 | 95 | 1012.6 |
| 20260505115554 | 72 | 244 | 0.0 | 1.0 | 0.00 | 0.00 | 0.00 | 95 | 1012.6 |
| 20260505115052 | 72 | 255 | 0.0 | 0.0 | 0.00 | 0.00 | 0.00 | 95 | 1012.4 |
| 20260505114549 | 72 | 263 | 0.0 | 1.0 | 0.00 | 0.00 | 0.00 | 95 | 1012.4 |
| 20260505114045 | 72 | 236 | 0.0 | 1.0 | 0.00 | 0.00 | 0.00 | 95 | 1012.9 |
| 20260505113542 | 72 | 271 | 0.0 | 0.0 | 0.00 | 0.00 | 0.00 | 95 | 1012.8 |
| 20260505113038 | 72 | 265 | 0.0 | 0.0 | 0.00 | 0.00 | 0.00 | 95 | 1012.6 |
| 20260505112534 | 72 | 261 | 0.0 | 1.0 | 0.00 | 0.00 | 0.00 | 94 | 1012.7 |
| 20260505112032 | 72 | 273 | 0.0 | 0.0 | 0.00 | 0.00 | 0.00 | 94 | 1012.7 |
| 20260505111526 | 72 | 267 | 0.0 | 2.0 | 0.00 | 0.00 | 0.00 | 94 | 1012.6 |
| 20260505111023 | 72 | 216 | 0.0 | 0.0 | 0.00 | 0.00 | 0.00 | 94 | 1012.8 |
| 20260505110519 | 72 | 221 | 0.0 | 1.0 | 0.00 | 0.00 | 0.00 | 94 | 1012.5 |
| 20260505101946 | 71 | 239 | 0.0 | 0.0 | 0.00 | 0.00 | 0.00 | 95 | 1012.6 |
| 20260505101444 | 71 | 268 | 0.0 | 0.0 | 0.00 | 0.00 | 0.00 | 95 | 1012.5 |
| 20260505100940 | 71 | 268 | 0.0 | 0.0 | 0.00 | 0.00 | 0.00 | 94 | 1012.8 |
| 20260505100438 | 71 | 268 | 0.0 | 0.0 | 0.00 | 0.00 | 0.00 | 94 | 1012.9 |
| 20260505095933 | 71 | 268 | 0.0 | 0.0 | 0.00 | 0.00 | 0.00 | 94 | 1012.9 |
| 20260505095430 | 71 | 270 | 0.0 | 0.0 | 0.00 | 0.00 | 0.00 | 94 | 1013.0 |
| 20260505094926 | 71 | 254 | 0.0 | 0.0 | 0.00 | 0.00 | 0.00 | 94 | 1012.8 |
| 20260505094424 | 71 | 254 | 0.0 | 0.0 | 0.00 | 0.00 | 0.00 | 94 | 1012.7 |
| 20260505093920 | 71 | 255 | 0.0 | 0.0 | 0.00 | 0.00 | 0.00 | 94 | 1012.8 |
| 20260505093417 | 71 | 255 | 0.0 | 1.0 | 0.00 | 0.00 | 0.00 | 94 | 1012.9 |
| 20260505092914 | 71 | 263 | 0.0 | 0.0 | 0.00 | 0.00 | 0.00 | 94 | 1013.1 |
| 20260505092412 | 71 | 264 | 0.0 | 0.0 | 0.00 | 0.00 | 0.00 | 94 | 1012.9 |
| 20260505091909 | 71 | 264 | 0.0 | 0.0 | 0.00 | 0.00 | 0.00 | 94 | 1013.0 |
| 20260505091406 | 71 | 265 | 0.0 | 0.0 | 0.00 | 0.00 | 0.00 | 94 | 1012.9 |
| 20260505090904 | 71 | 266 | 0.0 | 0.0 | 0.00 | 0.00 | 0.00 | 94 | 1013.0 |
| 20260505090402 | 70 | 271 | 0.0 | 0.0 | 0.00 | 0.00 | 0.00 | 94 | 1012.8 |
| 20260505085859 | 70 | 272 | 0.0 | 1.0 | 0.00 | 0.00 | 0.00 | 94 | 1012.8 |
| 20260505085357 | 70 | 301 | 0.0 | 0.0 | 0.00 | 0.00 | 0.00 | 94 | 1013.2 |
| 20260505084855 | 70 | 255 | 0.0 | 0.0 | 0.00 | 0.00 | 0.00 | 94 | 1013.1 |
| 20260505084353 | 71 | 248 | 0.0 | 0.0 | 0.00 | 0.00 | 0.00 | 93 | 1013.1 |
| 20260505083850 | 71 | 76 | 0.0 | 0.0 | 0.00 | 0.00 | 0.00 | 93 | 1013.0 |
| 20260505083348 | 71 | 217 | 0.0 | 0.0 | 0.00 | 0.00 | 0.00 | 93 | 1013.2 |
| 20260505082844 | 71 | 232 | 0.0 | 0.0 | 0.00 | 0.00 | 0.00 | 93 | 1013.4 |
| 20260505082340 | 71 | 233 | 0.0 | 0.0 | 0.00 | 0.00 | 0.00 | 93 | 1013.5 |
| 20260505081837 | 71 | 232 | 0.0 | 0.0 | 0.00 | 0.00 | 0.00 | 92 | 1013.5 |
| 20260505081333 | 71 | 240 | 0.0 | 1.0 | 0.00 | 0.00 | 0.00 | 92 | 1013.4 |
| 20260505080830 | 71 | 253 | 0.0 | 0.0 | 0.00 | 0.00 | 0.00 | 92 | 1013.5 |
| 20260505080326 | 71 | 253 | 0.0 | 0.0 | 0.00 | 0.00 | 0.00 | 92 | 1013.6 |
| 20260505075822 | 71 | 253 | 0.0 | 0.0 | 0.00 | 0.00 | 0.00 | 92 | 1013.6 |
| 20260505075319 | 71 | 253 | 0.0 | 0.0 | 0.00 | 0.00 | 0.00 | 91 | 1013.5 |
| 20260505074816 | 71 | 254 | 0.0 | 0.0 | 0.00 | 0.00 | 0.00 | 91 | 1013.6 |
| 20260505074313 | 71 | 253 | 0.0 | 2.0 | 0.00 | 0.00 | 0.00 | 91 | 1013.5 |
| 20260505073811 | 71 | 265 | 0.0 | 3.0 | 0.00 | 0.00 | 0.00 | 91 | 1013.6 |
| 20260505073309 | 71 | 274 | 0.0 | 1.0 | 0.00 | 0.00 | 0.00 | 91 | 1013.8 |
| 20260505072805 | 71 | 227 | 0.0 | 0.0 | 0.00 | 0.00 | 0.00 | 91 | 1013.8 |
| 20260505072301 | 71 | 230 | 0.0 | 0.0 | 0.00 | 0.00 | 0.00 | 90 | 1013.7 |
| 20260505071757 | 71 | 237 | 0.0 | 0.0 | 0.00 | 0.00 | 0.00 | 90 | 1013.9 |
| 20260505071254 | 71 | 260 | 0.0 | 0.0 | 0.00 | 0.00 | 0.00 | 90 | 1013.8 |
| 20260505070752 | 71 | 293 | 0.0 | 1.0 | 0.00 | 0.00 | 0.00 | 90 | 1014.3 |
| 20260505070248 | 71 | 226 | 0.0 | 1.0 | 0.00 | 0.00 | 0.00 | 90 | 1014.0 |
| 20260505065743 | 71 | 259 | 0.0 | 0.0 | 0.00 | 0.00 | 0.00 | 90 | 1014.1 |
| 20260505065240 | 71 | 273 | 0.0 | 0.0 | 0.00 | 0.00 | 0.00 | 89 | 1014.2 |
| 20260505064737 | 71 | 255 | 1.0 | 1.0 | 0.00 | 0.00 | 0.00 | 89 | 1014.2 |
| 20260505064235 | 71 | 237 | 0.0 | 1.0 | 0.00 | 0.00 | 0.00 | 89 | 1014.4 |
| 20260505063732 | 71 | 247 | 0.0 | 1.0 | 0.00 | 0.00 | 0.00 | 89 | 1014.4 |
| 20260505063229 | 71 | 225 | 0.0 | 0.0 | 0.00 | 0.00 | 0.00 | 89 | 1014.5 |
| 20260505062725 | 71 | 230 | 0.0 | 1.0 | 0.00 | 0.00 | 0.00 | 89 | 1014.5 |
| 20260505062223 | 71 | 234 | 0.0 | 0.0 | 0.00 | 0.00 | 0.00 | 89 | 1014.5 |
| 20260505061720 | 71 | 235 | 0.0 | 1.0 | 0.00 | 0.00 | 0.00 | 88 | 1014.6 |
| 20260505061218 | 71 | 268 | 0.0 | 1.0 | 0.00 | 0.00 | 0.00 | 88 | 1014.6 |
| 20260505060715 | 71 | 259 | 0.0 | 0.0 | 0.00 | 0.00 | 0.00 | 88 | 1014.9 |
| 20260505060212 | 71 | 254 | 0.0 | 0.0 | 0.00 | 0.00 | 0.00 | 88 | 1014.7 |
| 20260505055707 | 71 | 300 | 0.0 | 1.0 | 0.00 | 0.00 | 0.00 | 88 | 1014.7 |
| 20260505055203 | 71 | 268 | 0.0 | 1.0 | 0.00 | 0.00 | 0.00 | 88 | 1014.6 |
| 20260505054701 | 71 | 232 | 0.0 | 1.0 | 0.00 | 0.00 | 0.00 | 88 | 1014.8 |
| 20260505054159 | 71 | 262 | 0.0 | 0.0 | 0.00 | 0.00 | 0.00 | 87 | 1015.0 |
| 20260505053656 | 71 | 220 | 0.0 | 0.0 | 0.00 | 0.00 | 0.00 | 87 | 1014.9 |
| 20260505053153 | 71 | 232 | 0.0 | 1.0 | 0.00 | 0.00 | 0.00 | 87 | 1015.0 |
| 20260505052650 | 71 | 229 | 0.0 | 1.0 | 0.00 | 0.00 | 0.00 | 87 | 1015.2 |
| 20260505052147 | 71 | 230 | 0.0 | 0.0 | 0.00 | 0.00 | 0.00 | 86 | 1015.4 |
| 20260505051643 | 71 | 232 | 0.0 | 1.0 | 0.00 | 0.00 | 0.00 | 86 | 1015.3 |
| 20260505051142 | 71 | 224 | 0.0 | 1.0 | 0.00 | 0.00 | 0.00 | 86 | 1015.5 |
| 20260505050639 | 71 | 238 | 0.0 | 0.0 | 0.00 | 0.00 | 0.00 | 86 | 1015.3 |
| 20260505050138 | 71 | 239 | 0.0 | 1.0 | 0.00 | 0.00 | 0.00 | 85 | 1015.3 |
| 20260505041607 | 73 | 265 | 0.0 | 2.0 | 0.00 | 0.01 | 0.01 | 82 | 1015.5 |
| 20260505041105 | 73 | 242 | 0.0 | 1.0 | 0.00 | 0.01 | 0.01 | 81 | 1015.5 |
| 20260505040602 | 73 | 197 | 1.0 | 1.0 | 0.00 | 0.01 | 0.01 | 81 | 1015.5 |
| 20260505040059 | 73 | 225 | 0.0 | 2.0 | 0.00 | 0.01 | 0.01 | 80 | 1015.9 |
| 20260505035555 | 73 | 211 | 2.0 | 2.0 | 0.00 | 0.01 | 0.01 | 80 | 1015.6 |
| 20260505035051 | 73 | 223 | 1.0 | 1.0 | 0.00 | 0.01 | 0.01 | 80 | 1015.7 |
| 20260505034548 | 73 | 228 | 2.0 | 3.0 | 0.00 | 0.01 | 0.01 | 80 | 1015.8 |
| 20260505034045 | 73 | 234 | 1.0 | 2.0 | 0.00 | 0.01 | 0.01 | 80 | 1015.8 |
| 20260505033542 | 73 | 254 | 1.0 | 2.0 | 0.00 | 0.01 | 0.01 | 80 | 1016.2 |
| 20260505033040 | 73 | 258 | 0.0 | 1.0 | 0.00 | 0.01 | 0.01 | 80 | 1016.2 |
| 20260505032538 | 73 | 206 | 1.0 | 2.0 | 0.00 | 0.01 | 0.01 | 80 | 1015.9 |
| 20260505032034 | 73 | 295 | 2.0 | 2.0 | 0.00 | 0.01 | 0.01 | 80 | 1016.1 |
| 20260505031531 | 73 | 232 | 1.0 | 2.0 | 0.00 | 0.01 | 0.01 | 80 | 1016.0 |
| 20260505031027 | 73 | 216 | 1.0 | 2.0 | 0.00 | 0.01 | 0.01 | 80 | 1016.0 |
| 20260505030525 | 73 | 278 | 0.0 | 1.0 | 0.00 | 0.01 | 0.01 | 80 | 1016.1 |
| 20260505030021 | 73 | 233 | 1.0 | 3.0 | 0.00 | 0.01 | 0.01 | 80 | 1015.8 |
| 20260505025517 | 74 | 223 | 1.0 | 1.0 | 0.00 | 0.01 | 0.01 | 80 | 1015.7 |
| 20260505025016 | 74 | 214 | 0.0 | 2.0 | 0.00 | 0.01 | 0.01 | 79 | 1016.0 |
| 20260505024512 | 74 | 255 | 1.0 | 2.0 | 0.00 | 0.01 | 0.01 | 79 | 1015.9 |
| 20260505024009 | 74 | 0 | 1.0 | 1.0 | 0.00 | 0.01 | 0.01 | 79 | 1015.8 |
| 20260505023506 | 74 | 224 | 1.0 | 5.0 | 0.00 | 0.01 | 0.01 | 79 | 1016.3 |
| 20260505023004 | 74 | 273 | 0.0 | 0.0 | 0.00 | 0.01 | 0.01 | 79 | 1016.1 |
| 20260505022502 | 74 | 220 | 0.0 | 1.0 | 0.00 | 0.01 | 0.01 | 79 | 1016.2 |
| 20260505021958 | 74 | 158 | 2.0 | 2.0 | 0.00 | 0.01 | 0.01 | 79 | 1016.0 |
| 20260505021455 | 74 | 244 | 1.0 | 2.0 | 0.00 | 0.01 | 0.01 | 78 | 1016.0 |
| 20260505020950 | 74 | 67 | 1.0 | 2.0 | 0.00 | 0.01 | 0.01 | 78 | 1015.9 |
| 20260505020446 | 74 | 224 | 1.0 | 1.0 | 0.00 | 0.01 | 0.01 | 78 | 1016.0 |
| 20260505015943 | 75 | 266 | 1.0 | 5.0 | 0.00 | 0.01 | 0.01 | 77 | 1015.8 |
| 20260505015440 | 75 | 76 | 0.0 | 2.0 | 0.00 | 0.01 | 0.01 | 77 | 1016.1 |
| 20260505014937 | 75 | 147 | 2.0 | 6.0 | 0.00 | 0.01 | 0.01 | 76 | 1015.8 |
| 20260505014434 | 75 | 280 | 0.0 | 2.0 | 0.00 | 0.01 | 0.01 | 76 | 1015.9 |
| 20260505013931 | 75 | 216 | 0.0 | 1.0 | 0.00 | 0.01 | 0.01 | 76 | 1015.9 |
| 20260505013428 | 75 | 169 | 1.0 | 2.0 | 0.00 | 0.01 | 0.01 | 76 | 1015.9 |
| 20260505012926 | 75 | 21 | 1.0 | 1.0 | 0.00 | 0.01 | 0.01 | 76 | 1015.8 |
| 20260505012424 | 75 | 223 | 0.0 | 1.0 | 0.00 | 0.01 | 0.01 | 76 | 1015.7 |
| 20260505011920 | 75 | 220 | 0.0 | 3.0 | 0.00 | 0.01 | 0.01 | 76 | 1015.7 |
| 20260505011416 | 75 | 357 | 1.0 | 2.0 | 0.00 | 0.01 | 0.01 | 76 | 1015.8 |
| 20260505010913 | 75 | 236 | 2.0 | 2.0 | 0.00 | 0.01 | 0.01 | 76 | 1015.9 |
| 20260505010409 | 75 | 230 | 0.0 | 2.0 | 0.00 | 0.01 | 0.01 | 76 | 1015.8 |
| 20260505005905 | 75 | 234 | 0.0 | 1.0 | 0.00 | 0.01 | 0.01 | 75 | 1016.0 |
| 20260505005402 | 76 | 268 | 0.0 | 1.0 | 0.00 | 0.01 | 0.01 | 74 | 1015.7 |
| 20260505004859 | 76 | 247 | 0.0 | 2.0 | 0.00 | 0.01 | 0.01 | 74 | 1015.8 |
| 20260505004356 | 76 | 277 | 0.0 | 1.0 | 0.00 | 0.01 | 0.01 | 73 | 1015.8 |
| 20260505003853 | 76 | 267 | 0.0 | 1.0 | 0.00 | 0.01 | 0.01 | 72 | 1015.6 |
| 20260505003350 | 77 | 242 | 0.0 | 2.0 | 0.00 | 0.01 | 0.01 | 71 | 1015.7 |
| 20260505002846 | 77 | 235 | 0.0 | 1.0 | 0.00 | 0.01 | 0.01 | 71 | 1015.8 |
| 20260505002343 | 77 | 215 | 0.0 | 2.0 | 0.00 | 0.01 | 0.01 | 70 | 1015.8 |
| 20260505001842 | 77 | 264 | 0.0 | 2.0 | 0.00 | 0.01 | 0.01 | 71 | 1016.0 |
| 20260505001338 | 77 | 246 | 1.0 | 3.0 | 0.00 | 0.01 | 0.01 | 71 | 1016.0 |
| 20260505000835 | 77 | 252 | 0.0 | 1.0 | 0.00 | 0.01 | 0.01 | 71 | 1016.1 |
| 20260505000333 | 78 | 243 | 0.0 | 1.0 | 0.00 | 0.01 | 0.01 | 71 | 1016.0 |
| 20260504235830 | 78 | 275 | 2.0 | 2.0 | 0.00 | 0.01 | 0.01 | 70 | 1016.3 |
| 20260504235327 | 78 | 250 | 0.0 | 1.0 | 0.00 | 0.01 | 0.01 | 70 | 1016.0 |
| 20260504234823 | 78 | 235 | 0.0 | 1.0 | 0.00 | 0.01 | 0.01 | 70 | 1016.1 |
| 20260504234321 | 78 | 214 | 1.0 | 2.0 | 0.00 | 0.01 | 0.01 | 69 | 1016.1 |
| 20260504233817 | 78 | 231 | 1.0 | 1.0 | 0.00 | 0.01 | 0.01 | 69 | 1016.2 |
| 20260504233313 | 78 | 166 | 1.0 | 6.0 | 0.00 | 0.01 | 0.01 | 69 | 1016.2 |
| 20260504232810 | 79 | 270 | 1.0 | 3.0 | 0.00 | 0.01 | 0.01 | 68 | 1016.3 |
| 20260504232307 | 79 | 229 | 0.0 | 0.0 | 0.00 | 0.01 | 0.01 | 67 | 1016.3 |
| 20260504231804 | 79 | 285 | 0.0 | 3.0 | 0.00 | 0.01 | 0.01 | 67 | 1016.5 |
| 20260504231300 | 79 | 240 | 0.0 | 1.0 | 0.00 | 0.01 | 0.01 | 67 | 1016.5 |
| 20260504230756 | 79 | 226 | 2.0 | 2.0 | 0.00 | 0.01 | 0.01 | 66 | 1016.5 |
| 20260504230254 | 80 | 233 | 1.0 | 2.0 | 0.00 | 0.01 | 0.01 | 66 | 1016.8 |
| 20260504225753 | 80 | 221 | 2.0 | 2.0 | 0.00 | 0.01 | 0.01 | 65 | 1016.5 |
| 20260504225249 | 80 | 217 | 1.0 | 3.0 | 0.00 | 0.01 | 0.01 | 65 | 1016.5 |
| 20260504224746 | 80 | 143 | 3.0 | 7.0 | 0.00 | 0.01 | 0.01 | 64 | 1016.6 |
| 20260504224243 | 80 | 234 | 2.0 | 2.0 | 0.00 | 0.01 | 0.01 | 63 | 1016.6 |
| 20260504223740 | 81 | 192 | 1.0 | 2.0 | 0.00 | 0.01 | 0.01 | 63 | 1016.8 |
| 20260504223235 | 81 | 229 | 1.0 | 2.0 | 0.00 | 0.01 | 0.01 | 62 | 1017.0 |
| 20260504222733 | 81 | 295 | 1.0 | 1.0 | 0.00 | 0.01 | 0.01 | 60 | 1016.9 |
| 20260504222229 | 81 | 51 | 1.0 | 3.0 | 0.00 | 0.01 | 0.01 | 61 | 1017.0 |
| 20260504221727 | 81 | 261 | 0.0 | 1.0 | 0.00 | 0.01 | 0.01 | 60 | 1017.1 |
| 20260504221224 | 81 | 277 | 1.0 | 1.0 | 0.00 | 0.01 | 0.01 | 60 | 1017.0 |
| 20260504220720 | 81 | 332 | 0.0 | 1.0 | 0.00 | 0.01 | 0.01 | 59 | 1016.9 |
| 20260504220218 | 82 | 227 | 1.0 | 1.0 | 0.00 | 0.01 | 0.01 | 59 | 1017.1 |
| 20260504215714 | 82 | 284 | 2.0 | 2.0 | 0.00 | 0.01 | 0.01 | 59 | 1017.3 |
| 20260504215212 | 82 | 198 | 1.0 | 2.0 | 0.00 | 0.01 | 0.01 | 58 | 1017.1 |
| 20260504214707 | 82 | 276 | 1.0 | 2.0 | 0.00 | 0.01 | 0.01 | 59 | 1017.3 |
| 20260504214204 | 83 | 249 | 2.0 | 3.0 | 0.00 | 0.01 | 0.01 | 58 | 1017.2 |
| 20260504213701 | 83 | 92 | 1.0 | 2.0 | 0.00 | 0.01 | 0.01 | 57 | 1017.2 |
| 20260504213157 | 83 | 133 | 1.0 | 2.0 | 0.00 | 0.01 | 0.01 | 57 | 1017.2 |
| 20260504212654 | 83 | 262 | 1.0 | 1.0 | 0.00 | 0.01 | 0.01 | 58 | 1017.3 |
| 20260504212150 | 84 | 209 | 1.0 | 2.0 | 0.00 | 0.01 | 0.01 | 56 | 1017.4 |
| 20260504211648 | 85 | 356 | 2.0 | 3.0 | 0.00 | 0.01 | 0.01 | 55 | 1017.4 |
| 20260504211144 | 86 | 276 | 1.0 | 2.0 | 0.00 | 0.01 | 0.01 | 54 | 1017.4 |
| 20260504210642 | 84 | 0 | 0.0 | 1.0 | 0.00 | 0.01 | 0.01 | 54 | 1017.5 |
| 20260504210138 | 85 | 243 | 1.0 | 2.0 | 0.00 | 0.01 | 0.01 | 55 | 1017.8 |
| 20260504205636 | 85 | 70 | 1.0 | 2.0 | 0.00 | 0.01 | 0.01 | 53 | 1017.5 |
| 20260504205133 | 83 | 304 | 1.0 | 1.0 | 0.00 | 0.01 | 0.01 | 57 | 1017.9 |
| 20260504204632 | 84 | 273 | 1.0 | 2.0 | 0.00 | 0.01 | 0.01 | 55 | 1018.0 |
| 20260504204130 | 84 | 271 | 1.0 | 1.0 | 0.00 | 0.01 | 0.01 | 56 | 1018.0 |
| 20260504203628 | 84 | 243 | 0.0 | 2.0 | 0.00 | 0.01 | 0.01 | 58 | 1018.0 |
| 20260504203125 | 84 | 255 | 1.0 | 1.0 | 0.00 | 0.01 | 0.01 | 54 | 1018.1 |
| 20260504202620 | 84 | 284 | 0.0 | 3.0 | 0.00 | 0.01 | 0.01 | 56 | 1018.1 |
| 20260504202117 | 84 | 260 | 1.0 | 3.0 | 0.00 | 0.01 | 0.01 | 56 | 1018.4 |
| 20260504201614 | 84 | 225 | 1.0 | 1.0 | 0.00 | 0.01 | 0.01 | 54 | 1018.3 |
| 20260504201112 | 85 | 187 | 0.0 | 2.0 | 0.00 | 0.01 | 0.01 | 53 | 1018.5 |
| 20260504200609 | 84 | 262 | 0.0 | 1.0 | 0.00 | 0.01 | 0.01 | 54 | 1018.5 |
| 20260504200105 | 84 | 272 | 1.0 | 1.0 | 0.00 | 0.01 | 0.01 | 53 | 1018.5 |
| 20260504195601 | 85 | 225 | 1.0 | 2.0 | 0.00 | 0.01 | 0.01 | 53 | 1018.7 |
| 20260504195057 | 84 | 303 | 1.0 | 1.0 | 0.00 | 0.01 | 0.01 | 53 | 1018.7 |
| 20260504194554 | 83 | 266 | 1.0 | 2.0 | 0.00 | 0.01 | 0.01 | 56 | 1018.8 |
| 20260504194050 | 82 | 113 | 2.0 | 3.0 | 0.00 | 0.01 | 0.01 | 56 | 1018.8 |
| 20260504193546 | 82 | 122 | 2.0 | 3.0 | 0.00 | 0.01 | 0.01 | 55 | 1018.9 |
| 20260504193045 | 84 | 262 | 0.0 | 2.0 | 0.00 | 0.01 | 0.01 | 53 | 1018.8 |
| 20260504192543 | 84 | 12 | 1.0 | 2.0 | 0.00 | 0.01 | 0.01 | 53 | 1018.8 |
| 20260504192041 | 85 | 236 | 1.0 | 7.0 | 0.00 | 0.01 | 0.01 | 52 | 1019.0 |
| 20260504191538 | 86 | 15 | 2.0 | 2.0 | 0.00 | 0.01 | 0.01 | 50 | 1019.2 |
| 20260504191034 | 85 | 287 | 1.0 | 3.0 | 0.00 | 0.01 | 0.01 | 54 | 1019.1 |
| 20260504190531 | 85 | 263 | 2.0 | 2.0 | 0.00 | 0.01 | 0.01 | 52 | 1019.2 |
| 20260504190027 | 84 | 280 | 0.0 | 2.0 | 0.00 | 0.01 | 0.01 | 51 | 1019.1 |
| 20260504185524 | 86 | 247 | 1.0 | 2.0 | 0.00 | 0.01 | 0.01 | 53 | 1019.1 |
| 20260504185021 | 85 | 269 | 0.0 | 2.0 | 0.00 | 0.01 | 0.01 | 52 | 1019.2 |
| 20260504184516 | 85 | 222 | 0.0 | 1.0 | 0.00 | 0.01 | 0.01 | 52 | 1019.2 |
| 20260504184012 | 85 | 264 | 0.0 | 2.0 | 0.00 | 0.01 | 0.01 | 52 | 1019.2 |
| 20260504183509 | 84 | 319 | 0.0 | 1.0 | 0.00 | 0.01 | 0.01 | 53 | 1019.2 |
| 20260504183008 | 84 | 230 | 2.0 | 3.0 | 0.00 | 0.01 | 0.01 | 54 | 1019.2 |
| 20260504182504 | 85 | 290 | 2.0 | 6.0 | 0.00 | 0.01 | 0.01 | 51 | 1019.2 |
| 20260504182001 | 84 | 349 | 1.0 | 2.0 | 0.00 | 0.01 | 0.01 | 52 | 1019.0 |
| 20260504181458 | 84 | 315 | 0.0 | 1.0 | 0.00 | 0.01 | 0.01 | 54 | 1019.1 |
| 20260504180956 | 84 | 253 | 1.0 | 3.0 | 0.00 | 0.01 | 0.01 | 53 | 1019.6 |
| 20260504180455 | 84 | 183 | 2.0 | 3.0 | 0.00 | 0.01 | 0.01 | 52 | 1019.4 |
| 20260504175953 | 83 | 271 | 1.0 | 2.0 | 0.00 | 0.01 | 0.01 | 53 | 1019.4 |
| 20260504175450 | 85 | 268 | 2.0 | 2.0 | 0.00 | 0.01 | 0.01 | 52 | 1019.3 |
| 20260504174947 | 84 | 235 | 1.0 | 2.0 | 0.00 | 0.01 | 0.01 | 52 | 1019.6 |
| 20260504174445 | 84 | 241 | 1.0 | 2.0 | 0.00 | 0.01 | 0.01 | 53 | 1019.3 |
| 20260504173942 | 82 | 235 | 2.0 | 3.0 | 0.00 | 0.01 | 0.01 | 57 | 1019.4 |
| 20260504173438 | 81 | 220 | 1.0 | 2.0 | 0.00 | 0.01 | 0.01 | 56 | 1019.5 |
| 20260504172936 | 80 | 245 | 1.0 | 3.0 | 0.00 | 0.01 | 0.01 | 57 | 1019.3 |
| 20260504172432 | 81 | 270 | 2.0 | 5.0 | 0.00 | 0.01 | 0.01 | 55 | 1019.5 |
| 20260504171928 | 82 | 250 | 0.0 | 1.0 | 0.00 | 0.01 | 0.01 | 55 | 1019.4 |
| 20260504171426 | 82 | 22 | 1.0 | 1.0 | 0.00 | 0.01 | 0.01 | 55 | 1019.5 |
| 20260504170923 | 83 | 221 | 0.0 | 2.0 | 0.00 | 0.01 | 0.01 | 56 | 1019.6 |
| 20260504170419 | 83 | 333 | 1.0 | 2.0 | 0.00 | 0.01 | 0.01 | 53 | 1019.8 |
| 20260504160338 | 80 | 258 | 1.0 | 2.0 | 0.00 | 0.01 | 0.01 | 58 | 1020.1 |